When you browse on this site, cookies collect data to enhance your experience and personalize the content and advertising you see.
Visit our Privacy Policy to learn more. By continuing to use the site, you agree to this use of cookies and data.
  • în România
  • Lista ţărilor
  • Pe 7 zile
  • Temperatura apei
  • Hartă satelitară
  • Meteo pe hartă
  • Widget-uri
  • user-avatar
    Intrare

    Meteo pe oră la Wewak

    Astăzi, 26 Mai, Duminică

    Timp Temperatura Precipitaţii Vânt Presiune Umiditate
    00:00 +27°C° 1.4 mm 2 m/s 756 mmHg 97%
    01:00 +27°C° 1.4 mm 2 m/s 756 mmHg 97%
    02:00 +27°C° 0.4 mm 2 m/s 756 mmHg 98%
    03:00 +26°C° 0.4 mm 2 m/s 756 mmHg 98%
    04:00 +26°C° 0 mm 2 m/s 756 mmHg 98%
    05:00 +26°C° 0.3 mm 2 m/s 756 mmHg 98%
    06:00 +26°C° 0.3 mm 2 m/s 756 mmHg 98%
    07:00 +26°C° 0.3 mm 2 m/s 756 mmHg 98%
    08:00 +28°C° 0.6 mm 2 m/s 756 mmHg 91%
    09:00 +30°C° 0.6 mm 2 m/s 756 mmHg 84%
    10:00 +31°C° 0.6 mm 2 m/s 756 mmHg 77%
    11:00 +32°C° 0.3 mm 2 m/s 756 mmHg 70%
    12:00 +35°C° 0.3 mm 2 m/s 756 mmHg 63%
    13:00 +36°C° 0.3 mm 2 m/s 755 mmHg 56%
    14:00 +34°C° 0.5 mm 3 m/s 755 mmHg 66%
    15:00 +33°C° 0.5 mm 3 m/s 755 mmHg 76%
    16:00 +30°C° 0.5 mm 3 m/s 754 mmHg 87%
    17:00 +29°C° 0.6 mm 3 m/s 755 mmHg 90%
    18:00 +28°C° 0.6 mm 3 m/s 755 mmHg 93%
    19:00 +27°C° 0.6 mm 3 m/s 755 mmHg 96%
    20:00 +27°C° 0.1 mm 2 m/s 755 mmHg 96%
    21:00 +27°C° 0.1 mm 2 m/s 756 mmHg 96%
    22:00 +27°C° 0.1 mm 2 m/s 756 mmHg 96%
    23:00 +26°C° 0.3 mm 2 m/s 756 mmHg 96%

    Mâine, 27 Mai, Luni

    Timp Temperatura Precipitaţii Vânt Presiune Umiditate
    00:00 +26°C° 0.3 mm 2 m/s 756 mmHg 96%
    01:00 +26°C° 0.3 mm 2 m/s 756 mmHg 96%
    02:00 +26°C° 0.3 mm 2 m/s 756 mmHg 97%
    03:00 +26°C° 0.3 mm 2 m/s 756 mmHg 97%
    04:00 +26°C° 0.3 mm 2 m/s 755 mmHg 98%
    05:00 +26°C° 0 mm 2 m/s 756 mmHg 98%
    06:00 +26°C° 0 mm 2 m/s 756 mmHg 97%
    07:00 +26°C° 0 mm 2 m/s 756 mmHg 97%
    08:00 +28°C° 0.1 mm 2 m/s 756 mmHg 87%
    09:00 +30°C° 0.1 mm 2 m/s 756 mmHg 77%
    10:00 +32°C° 0.1 mm 2 m/s 756 mmHg 67%
    11:00 +34°C° 0 mm 2 m/s 756 mmHg 62%
    12:00 +35°C° 0 mm 2 m/s 756 mmHg 58%
    13:00 +36°C° 0 mm 2 m/s 755 mmHg 54%
    14:00 +35°C° 0.3 mm 3 m/s 755 mmHg 62%
    15:00 +33°C° 0.3 mm 3 m/s 754 mmHg 70%
    16:00 +31°C° 0.3 mm 3 m/s 753 mmHg 79%
    17:00 +30°C° 0.2 mm 3 m/s 754 mmHg 83%
    18:00 +29°C° 0.2 mm 2 m/s 754 mmHg 88%
    19:00 +27°C° 0.2 mm 2 m/s 755 mmHg 92%
    20:00 +27°C° 0.4 mm 2 m/s 755 mmHg 93%
    21:00 +27°C° 0.4 mm 2 m/s 756 mmHg 95%
    22:00 +27°C° 0.4 mm 2 m/s 756 mmHg 96%
    23:00 +27°C° 1 mm 2 m/s 756 mmHg 96%

    Poimâine, 28 Mai, Marţi

    Timp Temperatura Precipitaţii Vânt Presiune Umiditate
    00:00 +27°C° 1 mm 2 m/s 756 mmHg 96%
    01:00 +26°C° 1 mm 1 m/s 756 mmHg 97%
    02:00 +26°C° 0.4 mm 1 m/s 755 mmHg 97%
    03:00 +26°C° 0.4 mm 2 m/s 755 mmHg 97%
    04:00 +26°C° 0.4 mm 2 m/s 755 mmHg 97%
    05:00 +26°C° 0 mm 2 m/s 755 mmHg 97%
    06:00 +26°C° 0 mm 2 m/s 756 mmHg 97%
    07:00 +26°C° 0 mm 2 m/s 756 mmHg 97%
    08:00 +27°C° 0.1 mm 2 m/s 756 mmHg 93%
    09:00 +28°C° 0.1 mm 2 m/s 756 mmHg 88%
    10:00 +29°C° 0.1 mm 2 m/s 756 mmHg 83%
    11:00 +31°C° 0.1 mm 2 m/s 756 mmHg 73%
    12:00 +34°C° 0.1 mm 2 m/s 755 mmHg 63%
    13:00 +36°C° 0.1 mm 2 m/s 755 mmHg 53%
    14:00 +35°C° 0 mm 3 m/s 754 mmHg 57%
    15:00 +34°C° 0 mm 3 m/s 754 mmHg 61%
    16:00 +34°C° 0 mm 3 m/s 753 mmHg 64%
    17:00 +31°C° 0 mm 3 m/s 754 mmHg 71%
    18:00 +30°C° 0 mm 3 m/s 754 mmHg 78%
    19:00 +28°C° 0 mm 2 m/s 755 mmHg 85%
    20:00 +28°C° 0.2 mm 2 m/s 755 mmHg 87%
    21:00 +28°C° 0.2 mm 2 m/s 756 mmHg 89%
    22:00 +27°C° 0.2 mm 2 m/s 756 mmHg 91%
    23:00 +27°C° 0.9 mm 2 m/s 756 mmHg 93%

    29 Mai, Miercuri

    Timp Temperatura Precipitaţii Vânt Presiune Umiditate
    00:00 +27°C° 0.9 mm 2 m/s 756 mmHg 95%
    01:00 +26°C° 0.9 mm 2 m/s 756 mmHg 97%
    02:00 +26°C° 0.3 mm 2 m/s 755 mmHg 97%
    03:00 +26°C° 0.3 mm 2 m/s 755 mmHg 97%
    04:00 +26°C° 0.3 mm 2 m/s 755 mmHg 97%
    05:00 +26°C° 0 mm 2 m/s 755 mmHg 97%
    06:00 +26°C° 0 mm 2 m/s 756 mmHg 97%
    07:00 +26°C° 0 mm 2 m/s 756 mmHg 97%
    08:00 +28°C° 0 mm 2 m/s 756 mmHg 86%
    09:00 +30°C° 0 mm 2 m/s 756 mmHg 75%
    10:00 +33°C° 0 mm 3 m/s 757 mmHg 64%
    11:00 +34°C° 0 mm 3 m/s 756 mmHg 60%
    12:00 +35°C° 0 mm 3 m/s 755 mmHg 56%
    13:00 +36°C° 0 mm 3 m/s 755 mmHg 52%
    14:00 +35°C° 0 mm 3 m/s 754 mmHg 56%
    15:00 +35°C° 0 mm 3 m/s 754 mmHg 60%
    16:00 +34°C° 0 mm 4 m/s 753 mmHg 64%
    17:00 +31°C° 0.1 mm 3 m/s 754 mmHg 72%
    18:00 +30°C° 0.1 mm 3 m/s 754 mmHg 79%
    19:00 +28°C° 0.1 mm 3 m/s 755 mmHg 87%
    20:00 +28°C° 0.7 mm 3 m/s 755 mmHg 90%
    21:00 +27°C° 0.7 mm 3 m/s 756 mmHg 93%
    22:00 +27°C° 0.7 mm 3 m/s 756 mmHg 96%
    23:00 +27°C° 0.6 mm 3 m/s 756 mmHg 96%

    30 Mai, Joi

    Timp Temperatura Precipitaţii Vânt Presiune Umiditate
    00:00 +27°C° 0.6 mm 3 m/s 756 mmHg 96%
    01:00 +27°C° 0.6 mm 3 m/s 756 mmHg 96%
    02:00 +26°C° 0.2 mm 3 m/s 755 mmHg 96%
    03:00 +26°C° 0.2 mm 3 m/s 755 mmHg 97%
    04:00 +26°C° 0.2 mm 3 m/s 755 mmHg 97%
    05:00 +26°C° 0.1 mm 3 m/s 755 mmHg 97%
    06:00 +26°C° 0.1 mm 3 m/s 756 mmHg 97%
    07:00 +26°C° 0.1 mm 2 m/s 756 mmHg 97%
    08:00 +28°C° 0 mm 3 m/s 756 mmHg 86%
    09:00 +30°C° 0 mm 3 m/s 757 mmHg 76%
    10:00 +33°C° 0 mm 3 m/s 757 mmHg 65%
    11:00 +34°C° 0 mm 3 m/s 756 mmHg 60%
    12:00 +35°C° 0 mm 3 m/s 755 mmHg 54%
    13:00 +36°C° 0 mm 3 m/s 755 mmHg 49%
    14:00 +35°C° 0 mm 3 m/s 754 mmHg 53%
    15:00 +35°C° 0 mm 3 m/s 754 mmHg 58%
    16:00 +34°C° 0 mm 3 m/s 753 mmHg 62%
    17:00 +31°C° 0 mm 3 m/s 754 mmHg 71%
    18:00 +30°C° 0 mm 3 m/s 754 mmHg 80%
    19:00 +28°C° 0 mm 2 m/s 755 mmHg 88%
    20:00 +28°C° 0.1 mm 2 m/s 755 mmHg 90%
    21:00 +28°C° 0.1 mm 2 m/s 756 mmHg 92%
    22:00 +28°C° 0.1 mm 2 m/s 756 mmHg 94%
    23:00 +27°C° 0.5 mm 2 m/s 756 mmHg 95%

    31 Mai, Vineri

    Timp Temperatura Precipitaţii Vânt Presiune Umiditate
    00:00 +27°C° 0.5 mm 2 m/s 756 mmHg 96%
    01:00 +27°C° 0.5 mm 2 m/s 756 mmHg 97%
    02:00 +27°C° 0 mm 2 m/s 755 mmHg 97%
    03:00 +27°C° 0 mm 3 m/s 755 mmHg 97%
    04:00 +26°C° 0 mm 3 m/s 755 mmHg 97%
    05:00 +26°C° 0 mm 3 m/s 755 mmHg 97%
    06:00 +26°C° 0 mm 3 m/s 756 mmHg 97%
    07:00 +26°C° 0 mm 2 m/s 756 mmHg 97%
    08:00 +28°C° 0 mm 2 m/s 756 mmHg 86%
    09:00 +30°C° 0 mm 2 m/s 756 mmHg 75%
    10:00 +32°C° 0 mm 2 m/s 757 mmHg 65%
    11:00 +34°C° 0 mm 2 m/s 756 mmHg 59%
    12:00 +35°C° 0 mm 2 m/s 755 mmHg 54%
    13:00 +37°C° 0 mm 2 m/s 754 mmHg 49%
    14:00 +36°C° 0 mm 3 m/s 754 mmHg 52%
    15:00 +35°C° 0 mm 3 m/s 753 mmHg 56%
    16:00 +35°C° 0 mm 4 m/s 753 mmHg 59%
    17:00 +33°C° 0 mm 3 m/s 753 mmHg 69%
    18:00 +30°C° 0 mm 3 m/s 754 mmHg 79%
    19:00 +28°C° 0 mm 3 m/s 754 mmHg 89%
    20:00 +28°C° 0.3 mm 3 m/s 755 mmHg 91%
    21:00 +28°C° 0.3 mm 3 m/s 755 mmHg 93%
    22:00 +27°C° 0.3 mm 3 m/s 756 mmHg 96%
    23:00 +27°C° 0.7 mm 2 m/s 756 mmHg 96%
    Arată mai mult